contact:dominique.lefevre@mio.osupytheas.fr, maurice.libes@osupytheas.fr, didier.mallarino@osupytheas.fr
Project:EMSO http://www.emso-fr.org/EMSO-France
Depth: 2436.0 m
Title:EMSO Ligure Ouest : Data MII capteur AQUADOPP
Date,Latitude,Longitude,X_East,Y_North,Z_Up,Amplitude_X,Amplitude_Y,Amplitude_Z,Batterie,SoundSpeed,Heading,Pitch,Roll,Pressure,TIS,Speed,Direction
, degrees North, degrees East, m.s-1, m.s-1,m.s-1, 1, 1, 1, Volt, m.s-1, degree, degree, degree, dbar, degree_C, m.s-1, degree
2020-02-11T00:04:03,42.805,6.029,0.005,-0.017,-0.031,105.0,107.0,102.0,13.3,1505.3,326.4,-0.7,1.8,2470.179,13.31,0.017,163.6
2020-02-11T00:07:03,42.805,6.029,-0.002,-0.003,-0.043,105.0,106.0,102.0,13.4,1505.3,326.1,-0.7,1.9,2470.174,13.31,0.003,213.7
2020-02-11T00:10:03,42.805,6.029,-0.021,-0.011,-0.023,105.0,108.0,101.0,13.4,1505.3,328.2,-0.7,1.8,2470.188,13.32,0.023,242.4
2020-02-11T00:13:03,42.805,6.029,-0.001,-0.03,-0.011,105.0,107.0,103.0,13.3,1505.3,323.3,-0.7,1.8,2470.174,13.32,0.03,181.9
2020-02-11T00:16:03,42.805,6.029,-0.001,-0.001,-0.01,105.0,108.0,102.0,13.4,1505.3,327.3,-0.7,1.9,2470.164,13.32,0.001,225.0
2020-02-11T00:19:03,42.805,6.029,-0.008,-0.013,-0.015,106.0,105.0,101.0,13.4,1505.3,326.2,-0.7,1.8,2470.173,13.32,0.015,211.6
2020-02-11T00:22:03,42.805,6.029,-0.005,-0.023,-0.042,104.0,106.0,101.0,13.4,1505.3,325.2,-0.7,1.8,2470.144,13.32,0.023,192.3
2020-02-11T00:25:03,42.805,6.029,-0.002,-0.013,-0.023,105.0,106.0,101.0,13.3,1505.3,324.5,-0.7,1.8,2470.156,13.33,0.013,188.7
2020-02-11T00:28:03,42.805,6.029,-0.004,-0.02,-0.005,105.0,107.0,102.0,13.3,1505.3,325.2,-0.7,1.8,2470.146,13.33,0.02,191.3
2020-02-11T00:31:03,42.805,6.029,-0.025,-0.004,-0.026,105.0,108.0,101.0,13.3,1505.3,328.6,-0.7,1.9,2470.135,13.33,0.025,260.9
2020-02-11T00:34:03,42.805,6.029,-0.003,-0.012,-0.043,105.0,106.0,102.0,13.4,1505.3,324.2,-0.7,1.8,2470.1,13.33,0.012,194.0
2020-02-11T00:37:03,42.805,6.029,-0.015,-0.019,-0.044,107.0,107.0,103.0,13.4,1505.3,326.7,-0.7,1.8,2470.146,13.33,0.024,218.3
2020-02-11T00:40:03,42.805,6.029,-0.016,-0.015,-0.052,104.0,106.0,101.0,13.4,1505.3,328.0,-0.7,1.8,2470.168,13.33,0.021,226.9
2020-02-11T00:43:03,42.805,6.029,-0.028,-0.027,-0.032,107.0,107.0,101.0,13.4,1505.3,323.5,-0.7,1.8,2470.125,13.33,0.038,226.0
2020-02-11T00:46:03,42.805,6.029,0.0,-0.01,-0.001,103.0,106.0,103.0,13.4,1505.3,327.2,-0.7,1.8,2470.114,13.33,0.01,180.0
2020-02-11T00:49:03,42.805,6.029,0.01,-0.025,-0.02,104.0,107.0,101.0,13.4,1505.3,325.7,-0.7,1.8,2470.128,13.33,0.026,158.2
2020-02-11T00:52:03,42.805,6.029,-0.006,-0.008,-0.018,104.0,107.0,103.0,13.4,1505.3,324.3,-0.7,1.8,2470.173,13.33,0.01,216.9
2020-02-11T00:55:03,42.805,6.029,-0.005,-0.016,-0.027,105.0,108.0,102.0,13.4,1505.3,324.8,-0.7,1.8,2470.121,13.33,0.016,197.4
2020-02-11T00:58:03,42.805,6.029,-0.013,-0.01,-0.037,106.0,106.0,102.0,13.4,1505.3,327.3,-0.7,1.9,2470.102,13.33,0.016,232.4
2020-02-11T01:04:03,42.805,6.029,-0.027,-0.014,-0.023,105.0,109.0,102.0,13.3,1505.3,322.9,-0.8,1.8,2470.16,13.31,0.03,242.6
2020-02-11T01:07:03,42.805,6.029,-0.001,-0.018,0.0,105.0,107.0,102.0,13.3,1505.3,325.6,-0.7,1.9,2470.118,13.31,0.018,183.2
2020-02-11T01:10:03,42.805,6.029,0.019,-0.021,-0.04,106.0,107.0,102.0,13.3,1505.3,326.1,-0.7,1.8,2470.114,13.32,0.028,137.9
2020-02-11T01:13:03,42.805,6.029,-0.007,-0.032,-0.029,107.0,107.0,102.0,13.4,1505.3,323.8,-0.7,1.8,2470.098,13.32,0.032,192.3
2020-02-11T01:16:03,42.805,6.029,0.011,-0.019,-0.021,104.0,107.0,102.0,13.4,1505.3,326.5,-0.7,1.8,2470.148,13.32,0.021,149.9
2020-02-11T01:19:03,42.805,6.029,-0.001,-0.014,-0.029,105.0,106.0,102.0,13.4,1505.3,325.2,-0.7,1.8,2470.117,13.32,0.014,184.1
2020-02-11T01:22:03,42.805,6.029,-0.036,-0.016,-0.047,105.0,106.0,101.0,13.3,1505.3,326.4,-0.7,1.8,2470.1,13.32,0.039,246.0
2020-02-11T01:25:03,42.805,6.029,-0.005,-0.03,-0.032,104.0,106.0,102.0,13.3,1505.3,324.3,-0.7,1.8,2470.108,13.32,0.03,189.5
2020-02-11T01:28:03,42.805,6.029,0.007,-0.011,-0.008,107.0,107.0,102.0,13.4,1505.3,324.8,-0.7,1.8,2470.149,13.33,0.013,147.5
2020-02-11T01:31:03,42.805,6.029,0.0,-0.018,-0.02,107.0,106.0,103.0,13.4,1505.3,324.4,-0.7,1.8,2470.075,13.33,0.018,180.0
2020-02-11T01:34:03,42.805,6.029,-0.013,-0.018,-0.05,107.0,107.0,103.0,13.4,1505.3,326.5,-0.7,1.8,2470.099,13.33,0.022,215.8
2020-02-11T01:37:03,42.805,6.029,0.019,-0.029,0.015,106.0,109.0,102.0,13.4,1505.3,327.1,-0.7,1.9,2470.082,13.33,0.034,146.8
2020-02-11T01:40:03,42.805,6.029,-0.007,-0.011,0.006,107.0,107.0,103.0,13.4,1505.3,326.4,-0.7,1.8,2470.06,13.33,0.013,212.5
2020-02-11T01:43:03,42.805,6.029,0.005,-0.018,-0.007,106.0,107.0,103.0,13.4,1505.3,328.1,-0.7,1.8,2470.12,13.33,0.018,164.5
2020-02-11T01:46:03,42.805,6.029,-0.007,-0.015,-0.033,106.0,106.0,103.0,13.4,1505.3,323.3,-0.7,1.8,2470.099,13.33,0.016,205.0
2020-02-11T01:49:03,42.805,6.029,-0.006,-0.013,-0.011,107.0,108.0,103.0,13.3,1505.3,326.2,-0.7,1.8,2470.085,13.33,0.014,204.8
2020-02-11T01:52:03,42.805,6.029,0.008,-0.025,-0.026,105.0,107.0,103.0,13.3,1505.3,325.0,-0.7,1.9,2470.071,13.33,0.026,162.3
2020-02-11T01:55:03,42.805,6.029,-0.002,-0.019,-0.029,106.0,107.0,103.0,13.3,1505.3,325.8,-0.7,1.8,2470.082,13.33,0.019,186.0
2020-02-11T01:58:03,42.805,6.029,0.002,-0.022,-0.036,105.0,108.0,103.0,13.4,1505.3,326.5,-0.7,1.8,2470.095,13.33,0.022,174.8
2020-02-11T02:04:03,42.805,6.029,0.013,-0.022,-0.022,108.0,108.0,103.0,13.4,1505.3,325.4,-0.8,1.8,2470.101,13.31,0.025,149.4
2020-02-11T02:07:03,42.805,6.029,0.034,-0.031,0.006,105.0,107.0,103.0,13.3,1505.3,327.6,-0.7,1.8,2470.134,13.31,0.046,132.4
2020-02-11T02:10:03,42.805,6.029,0.02,0.005,-0.025,107.0,107.0,102.0,13.4,1505.3,326.2,-0.7,1.8,2470.091,13.32,0.02,76.0
2020-02-11T02:13:03,42.805,6.029,0.019,-0.026,-0.027,106.0,107.0,102.0,13.4,1505.3,323.7,-0.7,1.8,2470.128,13.32,0.032,143.8
2020-02-11T02:16:03,42.805,6.029,-0.012,-0.003,-0.012,106.0,109.0,103.0,13.4,1505.3,327.2,-0.7,1.8,2470.063,13.32,0.012,256.0
2020-02-11T02:19:03,42.805,6.029,-0.004,-0.006,-0.061,109.0,109.0,102.0,13.4,1505.3,327.4,-0.7,1.8,2470.09,13.32,0.007,213.7
2020-02-11T02:22:03,42.805,6.029,0.009,-0.005,-0.011,107.0,107.0,103.0,13.4,1505.3,323.1,-0.7,1.9,2470.08,13.33,0.01,119.1
2020-02-11T02:25:03,42.805,6.029,-0.005,-0.01,0.009,106.0,108.0,103.0,13.4,1505.3,325.8,-0.7,1.8,2470.062,13.33,0.011,206.6
2020-02-11T02:28:03,42.805,6.029,0.004,-0.014,0.0,106.0,107.0,103.0,13.4,1505.3,326.4,-0.7,1.8,2470.056,13.33,0.014,164.1
2020-02-11T02:31:03,42.805,6.029,0.014,-0.024,-0.011,106.0,109.0,103.0,13.3,1505.3,326.9,-0.8,1.8,2470.093,13.33,0.027,149.7
2020-02-11T02:34:03,42.805,6.029,0.021,-0.006,-0.026,106.0,108.0,103.0,13.4,1505.3,324.0,-0.7,1.8,2470.113,13.33,0.021,105.9
2020-02-11T02:37:03,42.805,6.029,0.031,-0.031,-0.039,107.0,109.0,103.0,13.3,1505.3,327.8,-0.7,1.8,2470.068,13.33,0.043,135.0
2020-02-11T02:40:03,42.805,6.029,0.0,-0.005,-0.012,105.0,109.0,103.0,13.4,1505.3,325.1,-0.7,1.8,2470.13,13.33,0.005,180.0
2020-02-11T02:43:03,42.805,6.029,0.008,-0.028,-0.025,107.0,107.0,103.0,13.4,1505.3,323.5,-0.7,1.8,2470.041,13.33,0.029,164.1
2020-02-11T02:46:03,42.805,6.029,0.032,-0.01,-0.017,107.0,108.0,103.0,13.4,1505.3,328.0,-0.7,1.8,2470.055,13.33,0.033,107.4
2020-02-11T02:49:03,42.805,6.029,-0.001,-0.012,-0.035,105.0,108.0,104.0,13.4,1505.3,326.2,-0.7,1.8,2470.078,13.33,0.012,184.8
2020-02-11T02:52:03,42.805,6.029,0.03,-0.01,0.003,106.0,109.0,103.0,13.4,1505.3,323.2,-0.7,1.8,2470.076,13.33,0.031,108.4
2020-02-11T02:55:03,42.805,6.029,0.034,0.006,0.017,107.0,108.0,103.0,13.4,1505.3,328.0,-0.7,1.8,2470.058,13.33,0.034,80.0
2020-02-11T02:58:03,42.805,6.029,0.016,-0.014,0.0,107.0,108.0,103.0,13.3,1505.3,324.9,-0.7,1.8,2470.068,13.33,0.021,131.2
2020-02-11T03:04:03,42.805,6.029,0.0,0.004,-0.035,107.0,106.0,105.0,13.4,1505.3,327.6,-0.8,1.8,2470.101,13.31,0.004,0.0
2020-02-11T03:07:03,42.805,6.029,-0.002,0.005,-0.048,106.0,107.0,103.0,13.4,1505.3,325.1,-0.7,1.8,2470.043,13.31,0.005,338.2
2020-02-11T03:10:03,42.805,6.029,-0.003,-0.015,-0.011,107.0,108.0,103.0,13.4,1505.3,327.2,-0.7,1.8,2470.098,13.32,0.015,191.3
2020-02-11T03:13:03,42.805,6.029,0.007,-0.001,-0.007,106.0,107.0,103.0,13.4,1505.3,323.9,-0.7,1.9,2470.092,13.32,0.007,98.1
2020-02-11T03:16:03,42.805,6.029,0.015,-0.017,-0.007,106.0,107.0,103.0,13.3,1505.3,324.7,-0.7,1.9,2470.084,13.32,0.022,138.6
2020-02-11T03:19:03,42.805,6.029,0.007,-0.015,-0.019,106.0,109.0,102.0,13.4,1505.3,323.1,-0.7,1.8,2470.117,13.32,0.016,155.0
2020-02-11T03:22:03,42.805,6.029,0.008,0.0,-0.016,107.0,109.0,103.0,13.3,1505.3,325.8,-0.7,1.8,2470.145,13.33,0.008,90.0
2020-02-11T03:25:03,42.805,6.029,0.009,-0.026,-0.012,107.0,108.0,103.0,13.4,1505.3,323.6,-0.7,1.8,2470.074,13.33,0.027,160.9
2020-02-11T03:28:03,42.805,6.029,-0.008,-0.018,-0.02,107.0,108.0,103.0,13.4,1505.3,327.7,-0.7,1.8,2470.049,13.33,0.019,204.0
2020-02-11T03:31:03,42.805,6.029,0.0,-0.023,-0.018,105.0,107.0,103.0,13.3,1505.3,324.7,-0.7,1.8,2470.067,13.33,0.023,180.0
2020-02-11T03:34:03,42.805,6.029,-0.01,-0.021,-0.021,107.0,108.0,104.0,13.4,1505.3,328.6,-0.7,1.9,2470.073,13.33,0.023,205.5
2020-02-11T03:37:03,42.805,6.029,0.02,-0.027,0.001,107.0,108.0,104.0,13.4,1505.3,326.9,-0.7,1.8,2470.069,13.33,0.033,143.5
2020-02-11T03:40:03,42.805,6.029,0.002,-0.017,-0.031,107.0,107.0,103.0,13.4,1505.3,328.0,-0.7,1.8,2470.084,13.33,0.017,173.3
2020-02-11T03:43:03,42.805,6.029,-0.002,-0.014,-0.049,106.0,107.0,103.0,13.4,1505.3,325.7,-0.7,1.8,2470.082,13.33,0.014,188.1
2020-02-11T03:46:03,42.805,6.029,0.012,-0.016,-0.005,107.0,107.0,104.0,13.3,1505.3,326.0,-0.7,1.8,2470.068,13.33,0.02,143.1
2020-02-11T03:49:03,42.805,6.029,0.013,-0.026,-0.077,106.0,108.0,102.0,13.4,1505.3,324.2,-0.7,1.8,2470.057,13.33,0.029,153.4
2020-02-11T03:52:03,42.805,6.029,0.012,-0.005,0.003,105.0,108.0,103.0,13.3,1505.3,325.0,-0.7,1.8,2470.122,13.33,0.013,112.6
2020-02-11T03:55:03,42.805,6.029,-0.024,-0.015,-0.053,106.0,107.0,102.0,13.4,1505.3,325.7,-0.7,1.8,2470.081,13.33,0.028,238.0
2020-02-11T03:58:03,42.805,6.029,-0.013,-0.031,-0.055,107.0,108.0,103.0,13.4,1505.3,328.1,-0.7,1.8,2470.125,13.33,0.033,202.7
2020-02-11T04:04:03,42.805,6.029,0.016,-0.01,-0.017,108.0,108.0,104.0,13.4,1505.3,326.2,-0.8,1.9,2470.13,13.31,0.018,122.0
2020-02-11T04:07:03,42.805,6.029,-0.013,-0.024,0.0,107.0,108.0,104.0,13.3,1505.3,326.5,-0.7,1.9,2470.108,13.31,0.027,208.4
2020-02-11T04:10:03,42.805,6.029,-0.021,0.0,-0.031,106.0,108.0,102.0,13.4,1505.3,323.4,-0.8,1.8,2470.105,13.32,0.021,270.0
2020-02-11T04:13:03,42.805,6.029,0.01,-0.026,-0.052,107.0,107.0,104.0,13.4,1505.3,327.5,-0.7,1.9,2470.123,13.32,0.027,159.0
2020-02-11T04:16:03,42.805,6.029,0.0,-0.02,-0.041,107.0,108.0,104.0,13.4,1505.3,326.6,-0.7,1.8,2470.055,13.32,0.02,180.0
2020-02-11T04:19:03,42.805,6.029,0.008,-0.009,-0.04,107.0,109.0,102.0,13.4,1505.3,324.5,-0.7,1.8,2470.111,13.32,0.012,138.4
2020-02-11T04:22:03,42.805,6.029,-0.016,0.003,-0.02,106.0,107.0,104.0,13.4,1505.3,324.9,-0.7,1.8,2470.101,13.33,0.016,280.6
2020-02-11T04:25:03,42.805,6.029,-0.023,-0.016,-0.003,106.0,108.0,103.0,13.4,1505.3,324.9,-0.7,1.8,2470.071,13.33,0.028,235.2
2020-02-11T04:28:03,42.805,6.029,-0.009,-0.026,-0.033,105.0,108.0,104.0,13.3,1505.3,327.0,-0.7,1.8,2470.132,13.33,0.027,199.1
2020-02-11T04:31:03,42.805,6.029,0.037,-0.007,-0.02,107.0,108.0,102.0,13.4,1505.3,325.2,-0.7,1.8,2470.125,13.33,0.037,100.7
2020-02-11T04:34:03,42.805,6.029,-0.006,-0.023,-0.012,105.0,107.0,103.0,13.4,1505.3,324.3,-0.7,1.8,2470.111,13.33,0.023,194.6
2020-02-11T04:37:03,42.805,6.029,-0.019,-0.018,-0.053,107.0,108.0,103.0,13.4,1505.3,327.1,-0.7,1.8,2470.144,13.33,0.026,226.5
2020-02-11T04:40:03,42.805,6.029,-0.005,-0.001,0.0,107.0,107.0,104.0,13.4,1505.3,327.6,-0.7,1.9,2470.143,13.33,0.005,258.7
2020-02-11T04:43:03,42.805,6.029,-0.019,-0.023,-0.021,107.0,109.0,103.0,13.4,1505.3,324.3,-0.7,1.9,2470.122,13.33,0.029,219.6
2020-02-11T04:46:03,42.805,6.029,0.001,-0.022,-0.023,107.0,108.0,103.0,13.4,1505.3,324.5,-0.7,1.8,2470.15,13.33,0.022,177.4
2020-02-11T04:49:03,42.805,6.029,0.033,-0.031,-0.018,107.0,107.0,103.0,13.4,1505.3,328.5,-0.7,1.8,2470.115,13.33,0.045,133.2
2020-02-11T04:52:03,42.805,6.029,0.019,-0.013,-0.02,107.0,107.0,104.0,13.4,1505.3,324.0,-0.7,1.8,2470.134,13.33,0.023,124.4
2020-02-11T04:55:03,42.805,6.029,0.012,-0.018,-0.004,106.0,108.0,103.0,13.3,1505.3,326.0,-0.7,1.9,2470.127,13.33,0.021,146.3
2020-02-11T04:58:03,42.805,6.029,-0.028,-0.022,-0.06,108.0,107.0,102.0,13.4,1505.3,325.2,-0.7,1.8,2470.142,13.33,0.035,231.8
2020-02-11T05:04:03,42.805,6.029,0.0,-0.041,-0.022,107.0,107.0,104.0,13.4,1505.3,324.9,-0.7,1.8,2470.186,13.31,0.041,180.0
2020-02-11T05:07:03,42.805,6.029,0.003,-0.012,-0.002,106.0,107.0,103.0,13.4,1505.3,324.2,-0.7,1.9,2470.177,13.31,0.012,166.0
2020-02-11T05:10:03,42.805,6.029,0.01,-0.017,-0.024,105.0,108.0,103.0,13.4,1505.3,323.9,-0.7,1.8,2470.226,13.32,0.019,149.5
2020-02-11T05:13:03,42.805,6.029,0.013,-0.019,-0.006,107.0,107.0,103.0,13.4,1505.3,328.4,-0.7,1.8,2470.211,13.32,0.023,145.6
2020-02-11T05:16:03,42.805,6.029,0.0,-0.02,0.0,105.0,107.0,103.0,13.4,1505.3,327.6,-0.7,1.8,2470.162,13.32,0.02,180.0
2020-02-11T05:19:03,42.805,6.029,0.02,0.0,-0.002,106.0,107.0,103.0,13.4,1505.3,324.8,-0.7,1.8,2470.186,13.32,0.02,90.0
2020-02-11T05:22:03,42.805,6.029,0.015,-0.016,-0.011,107.0,107.0,103.0,13.4,1505.3,326.4,-0.7,1.8,2470.211,13.33,0.021,136.9
2020-02-11T05:25:03,42.805,6.029,0.007,-0.029,-0.012,106.0,108.0,104.0,13.3,1505.3,324.2,-0.7,1.8,2470.159,13.33,0.029,166.4
2020-02-11T05:28:03,42.805,6.029,0.005,-0.037,-0.029,106.0,106.0,103.0,13.4,1505.3,327.2,-0.7,1.8,2470.178,13.33,0.037,172.3
2020-02-11T05:31:03,42.805,6.029,0.012,-0.013,-0.023,106.0,106.0,103.0,13.3,1505.3,326.5,-0.8,1.8,2470.17,13.33,0.017,137.3
2020-02-11T05:34:03,42.805,6.029,0.023,-0.026,-0.01,107.0,107.0,103.0,13.4,1505.3,325.7,-0.7,1.9,2470.21,13.33,0.034,138.5
2020-02-11T05:37:03,42.805,6.029,-0.031,-0.021,-0.049,106.0,108.0,103.0,13.3,1505.3,324.9,-0.7,1.8,2470.177,13.33,0.037,235.9
2020-02-11T05:40:03,42.805,6.029,-0.005,-0.023,-0.061,108.0,107.0,103.0,13.3,1505.3,326.3,-0.7,1.8,2470.197,13.33,0.023,192.3
2020-02-11T05:43:03,42.805,6.029,0.02,-0.019,-0.025,106.0,108.0,102.0,13.3,1505.3,323.5,-0.7,1.8,2470.218,13.33,0.027,133.5
2020-02-11T05:46:03,42.805,6.029,-0.002,-0.028,-0.005,105.0,108.0,104.0,13.4,1505.3,324.9,-0.7,1.8,2470.184,13.33,0.028,184.1
2020-02-11T05:49:03,42.805,6.029,-0.007,-0.012,-0.026,106.0,107.0,103.0,13.3,1505.3,323.1,-0.7,1.8,2470.23,13.33,0.013,210.3
2020-02-11T05:52:03,42.805,6.029,0.01,-0.001,-0.029,106.0,109.0,103.0,13.4,1505.3,324.8,-0.7,1.8,2470.228,13.33,0.01,95.7
2020-02-11T05:55:03,42.805,6.029,-0.006,-0.008,-0.013,107.0,107.0,103.0,13.4,1505.3,324.1,-0.7,1.8,2470.222,13.33,0.01,216.9
2020-02-11T05:58:03,42.805,6.029,-0.039,-0.015,-0.024,107.0,107.0,103.0,13.4,1505.3,327.1,-0.7,1.8,2470.211,13.33,0.041,249.0
2020-02-11T06:04:03,42.805,6.029,0.003,-0.03,0.002,105.0,107.0,103.0,13.3,1505.3,325.9,-0.8,1.8,2470.275,13.31,0.03,174.3
2020-02-11T06:07:03,42.805,6.029,-0.001,-0.007,-0.013,106.0,108.0,102.0,13.4,1505.3,324.1,-0.7,1.8,2470.294,13.31,0.007,188.1
2020-02-11T06:10:03,42.805,6.029,-0.009,-0.025,-0.04,107.0,108.0,104.0,13.4,1505.3,326.5,-0.7,1.9,2470.277,13.32,0.026,199.8
2020-02-11T06:13:03,42.805,6.029,-0.005,-0.01,-0.024,107.0,107.0,104.0,13.4,1505.3,327.9,-0.7,1.8,2470.218,13.32,0.011,206.6
2020-02-11T06:16:03,42.805,6.029,0.029,-0.035,-0.043,106.0,107.0,103.0,13.4,1505.3,325.0,-0.7,1.8,2470.233,13.32,0.045,140.4
2020-02-11T06:19:03,42.805,6.029,0.006,-0.035,0.012,105.0,108.0,104.0,13.3,1505.3,324.3,-0.7,1.8,2470.256,13.32,0.035,170.3
2020-02-11T06:22:03,42.805,6.029,-0.009,-0.027,-0.051,107.0,106.0,102.0,13.3,1505.3,328.3,-0.7,1.9,2470.24,13.32,0.028,198.4
2020-02-11T06:25:03,42.805,6.029,0.005,-0.012,-0.015,105.0,108.0,102.0,13.4,1505.3,325.1,-0.7,1.8,2470.294,13.33,0.013,157.4
2020-02-11T06:28:03,42.805,6.029,0.009,-0.015,-0.006,106.0,106.0,103.0,13.3,1505.3,325.7,-0.7,1.9,2470.243,13.33,0.017,149.0
2020-02-11T06:31:03,42.805,6.029,0.004,-0.014,0.017,107.0,107.0,104.0,13.4,1505.3,324.6,-0.7,1.9,2470.257,13.33,0.014,164.1
2020-02-11T06:34:03,42.805,6.029,-0.002,-0.012,-0.046,108.0,106.0,103.0,13.3,1505.3,324.0,-0.7,1.8,2470.253,13.33,0.012,189.5
2020-02-11T06:37:03,42.805,6.029,-0.002,-0.023,-0.01,107.0,108.0,102.0,13.3,1505.3,327.1,-0.7,1.8,2470.254,13.33,0.023,185.0
2020-02-11T06:40:03,42.805,6.029,0.001,-0.025,0.015,107.0,108.0,103.0,13.4,1505.3,325.3,-0.7,1.8,2470.246,13.33,0.025,177.7
2020-02-11T06:43:03,42.805,6.029,0.016,-0.031,0.013,107.0,108.0,104.0,13.4,1505.3,326.8,-0.7,1.8,2470.281,13.33,0.034,152.7
2020-02-11T06:46:03,42.805,6.029,-0.001,-0.007,-0.009,107.0,106.0,103.0,13.4,1505.3,326.9,-0.7,1.8,2470.265,13.33,0.007,188.1
2020-02-11T06:49:03,42.805,6.029,0.013,-0.024,-0.007,107.0,108.0,104.0,13.4,1505.3,326.8,-0.7,1.8,2470.25,13.33,0.027,151.6
2020-02-11T06:52:03,42.805,6.029,-0.007,-0.026,-0.032,106.0,107.0,103.0,13.4,1505.3,325.7,-0.7,1.8,2470.303,13.33,0.026,195.1
2020-02-11T06:55:03,42.805,6.029,0.021,-0.023,-0.022,106.0,107.0,103.0,13.4,1505.3,324.7,-0.7,1.9,2470.328,13.33,0.031,137.6
2020-02-11T06:58:03,42.805,6.029,0.024,-0.015,-0.027,106.0,107.0,104.0,13.4,1505.3,325.7,-0.7,1.8,2470.317,13.33,0.028,122.0
2020-02-11T07:04:03,42.805,6.029,0.018,-0.026,-0.003,107.0,107.0,103.0,13.3,1505.3,324.7,-0.7,1.8,2470.346,13.31,0.031,145.3
2020-02-11T07:07:03,42.805,6.029,0.012,-0.031,-0.008,106.0,107.0,102.0,13.3,1505.3,328.5,-0.8,1.8,2470.33,13.31,0.033,158.8
2020-02-11T07:10:03,42.805,6.029,0.019,-0.012,-0.015,107.0,107.0,103.0,13.3,1505.3,327.3,-0.7,1.8,2470.361,13.32,0.022,122.3
2020-02-11T07:13:03,42.805,6.029,0.022,-0.029,-0.001,107.0,108.0,103.0,13.3,1505.3,327.9,-0.7,1.8,2470.333,13.32,0.036,142.8
2020-02-11T07:16:03,42.805,6.029,0.03,-0.014,-0.012,107.0,107.0,103.0,13.4,1505.3,323.9,-0.7,1.8,2470.334,13.32,0.033,115.0
2020-02-11T07:19:03,42.805,6.029,0.032,-0.04,-0.001,105.0,107.0,103.0,13.3,1505.3,327.3,-0.7,1.8,2470.339,13.32,0.051,141.3
2020-02-11T07:22:03,42.805,6.029,0.003,-0.002,0.007,106.0,107.0,103.0,13.4,1505.3,328.6,-0.7,1.8,2470.383,13.32,0.003,123.7
2020-02-11T07:25:03,42.805,6.029,0.022,-0.029,-0.02,105.0,108.0,103.0,13.4,1505.3,324.0,-0.7,1.9,2470.368,13.33,0.036,142.8
2020-02-11T07:28:03,42.805,6.029,0.023,0.002,0.018,106.0,107.0,104.0,13.3,1505.3,327.4,-0.7,1.8,2470.385,13.33,0.023,85.0
2020-02-11T07:31:03,42.805,6.029,0.011,-0.023,-0.016,107.0,108.0,103.0,13.4,1505.3,324.5,-0.7,1.8,2470.379,13.33,0.025,154.4
2020-02-11T07:34:03,42.805,6.029,0.032,0.003,-0.009,106.0,109.0,103.0,13.4,1505.3,327.3,-0.7,1.8,2470.358,13.33,0.032,84.6
2020-02-11T07:37:03,42.805,6.029,0.012,-0.006,0.012,107.0,107.0,104.0,13.4,1505.3,322.8,-0.7,1.8,2470.333,13.33,0.013,116.6
2020-02-11T07:40:03,42.805,6.029,0.021,-0.03,0.002,106.0,108.0,103.0,13.3,1505.3,324.3,-0.7,1.8,2470.32,13.33,0.036,145.0
2020-02-11T07:43:03,42.805,6.029,-0.007,-0.018,-0.006,107.0,108.0,103.0,13.4,1505.3,328.2,-0.7,1.8,2470.358,13.33,0.019,201.2
2020-02-11T07:46:03,42.805,6.029,0.024,-0.016,-0.016,107.0,107.0,103.0,13.4,1505.3,326.3,-0.7,1.8,2470.38,13.33,0.028,123.7
2020-02-11T07:49:03,42.805,6.029,0.017,-0.02,-0.05,106.0,108.0,102.0,13.4,1505.3,328.5,-0.7,1.8,2470.361,13.33,0.026,139.6
2020-02-11T07:52:03,42.805,6.029,0.026,0.007,-0.029,107.0,108.0,102.0,13.4,1505.3,327.1,-0.7,1.8,2470.346,13.33,0.026,74.9
2020-02-11T07:55:03,42.805,6.029,0.033,-0.016,0.01,106.0,108.0,102.0,13.4,1505.3,326.0,-0.7,1.8,2470.353,13.33,0.036,115.9
2020-02-11T07:58:03,42.805,6.029,0.02,-0.019,-0.004,105.0,108.0,102.0,13.4,1505.3,325.3,-0.7,1.9,2470.375,13.33,0.027,133.5
2020-02-11T08:04:03,42.805,6.029,0.006,-0.026,0.019,105.0,106.0,102.0,13.4,1505.3,324.4,-0.8,1.8,2470.358,13.31,0.026,167.0
2020-02-11T08:07:03,42.805,6.029,0.006,0.0,-0.009,106.0,107.0,103.0,13.3,1505.3,325.6,-0.7,1.9,2470.362,13.31,0.006,90.0
2020-02-11T08:10:03,42.805,6.029,0.022,-0.005,-0.002,105.0,107.0,103.0,13.3,1505.3,325.1,-0.7,1.8,2470.335,13.32,0.022,102.8
2020-02-11T08:13:03,42.805,6.029,0.02,-0.006,0.01,106.0,107.0,102.0,13.3,1505.3,323.5,-0.8,1.8,2470.392,13.32,0.02,106.7
2020-02-11T08:16:03,42.805,6.029,0.013,-0.016,-0.024,106.0,107.0,103.0,13.4,1505.3,328.5,-0.7,1.8,2470.386,13.32,0.02,140.9
2020-02-11T08:19:03,42.805,6.029,0.015,-0.007,0.013,108.0,107.0,103.0,13.4,1505.3,326.4,-0.7,1.9,2470.399,13.32,0.016,115.0
2020-02-11T08:22:03,42.805,6.029,0.016,-0.008,-0.007,108.0,107.0,103.0,13.4,1505.3,325.0,-0.7,1.8,2470.39,13.33,0.017,116.6
2020-02-11T08:25:03,42.805,6.029,0.03,-0.035,0.009,108.0,107.0,103.0,13.3,1505.3,326.8,-0.7,1.8,2470.363,13.33,0.046,139.4
2020-02-11T08:28:03,42.805,6.029,-0.001,-0.016,-0.029,106.0,107.0,103.0,13.4,1505.3,326.2,-0.7,1.8,2470.365,13.33,0.016,183.6
2020-02-11T08:31:03,42.805,6.029,0.011,-0.013,0.021,107.0,107.0,102.0,13.4,1505.3,323.9,-0.7,1.9,2470.381,13.33,0.017,139.8
2020-02-11T08:34:03,42.805,6.029,0.016,0.005,0.002,107.0,107.0,102.0,13.4,1505.3,324.5,-0.7,1.8,2470.378,13.33,0.016,72.6
2020-02-11T08:37:03,42.805,6.029,-0.004,-0.025,-0.006,106.0,107.0,102.0,13.4,1505.3,324.4,-0.7,1.8,2470.36,13.33,0.025,189.1
2020-02-11T08:40:03,42.805,6.029,0.026,-0.023,-0.015,108.0,107.0,103.0,13.4,1505.3,327.8,-0.7,1.8,2470.372,13.33,0.034,131.5
2020-02-11T08:43:03,42.805,6.029,0.029,-0.019,-0.017,107.0,107.0,103.0,13.3,1505.3,325.0,-0.7,1.9,2470.354,13.33,0.034,123.2
2020-02-11T08:46:03,42.805,6.029,0.003,0.0,-0.024,106.0,109.0,103.0,13.4,1505.3,323.2,-0.7,1.8,2470.384,13.33,0.003,90.0
2020-02-11T08:49:03,42.805,6.029,0.037,-0.012,0.023,108.0,109.0,104.0,13.4,1505.3,326.5,-0.7,1.8,2470.373,13.33,0.038,108.0
2020-02-11T08:52:03,42.805,6.029,0.056,-0.01,0.023,106.0,108.0,103.0,13.4,1505.3,323.5,-0.7,1.8,2470.357,13.33,0.056,100.1
2020-02-11T08:55:03,42.805,6.029,0.025,-0.029,-0.049,106.0,108.0,102.0,13.4,1505.3,325.5,-0.7,1.8,2470.412,13.33,0.038,139.2
2020-02-11T08:58:03,42.805,6.029,0.021,-0.025,-0.024,106.0,108.0,103.0,13.4,1505.3,324.5,-0.7,1.8,2470.372,13.33,0.032,140.0
2020-02-11T09:04:03,42.805,6.029,-0.002,-0.004,-0.049,106.0,108.0,102.0,13.3,1505.3,327.9,-0.7,1.8,2470.431,13.31,0.004,206.6
2020-02-11T09:07:03,42.805,6.029,0.017,-0.013,0.018,108.0,108.0,103.0,13.4,1505.3,325.6,-0.7,1.8,2470.396,13.31,0.021,127.4
2020-02-11T09:10:03,42.805,6.029,0.02,-0.006,0.002,107.0,107.0,102.0,13.3,1505.3,326.3,-0.7,1.9,2470.412,13.32,0.02,106.7
2020-02-11T09:13:03,42.805,6.029,0.009,-0.003,0.002,105.0,108.0,102.0,13.4,1505.3,324.5,-0.7,1.8,2470.372,13.32,0.009,108.4
2020-02-11T09:16:03,42.805,6.029,-0.005,-0.038,-0.021,105.0,107.0,103.0,13.4,1505.3,325.7,-0.7,1.8,2470.363,13.32,0.038,187.5
2020-02-11T09:19:03,42.805,6.029,0.026,-0.015,0.0,106.0,109.0,103.0,13.4,1505.3,323.9,-0.7,1.8,2470.423,13.32,0.03,120.0
2020-02-11T09:22:03,42.805,6.029,0.02,0.0,-0.007,106.0,109.0,102.0,13.3,1505.3,326.9,-0.7,1.8,2470.428,13.33,0.02,90.0
2020-02-11T09:25:03,42.805,6.029,0.028,-0.011,0.005,107.0,108.0,103.0,13.4,1505.3,326.9,-0.7,1.9,2470.394,13.33,0.03,111.4
2020-02-11T09:28:03,42.805,6.029,0.016,-0.009,0.011,107.0,109.0,104.0,13.4,1505.3,324.7,-0.7,1.8,2470.369,13.33,0.018,119.4
2020-02-11T09:31:03,42.805,6.029,0.047,-0.018,-0.031,107.0,107.0,103.0,13.4,1505.3,324.8,-0.7,1.8,2470.361,13.33,0.05,111.0
2020-02-11T09:34:03,42.805,6.029,0.017,-0.009,0.011,107.0,107.0,102.0,13.4,1505.3,325.0,-0.7,1.8,2470.414,13.33,0.019,117.9
2020-02-11T09:37:03,42.805,6.029,0.007,-0.009,0.004,105.0,107.0,104.0,13.4,1505.3,324.1,-0.7,1.8,2470.323,13.33,0.011,142.1
2020-02-11T09:40:03,42.805,6.029,0.028,-0.007,-0.009,107.0,107.0,102.0,13.4,1505.3,323.9,-0.7,1.8,2470.347,13.33,0.028,104.0
2020-02-11T09:43:03,42.805,6.029,0.039,-0.011,-0.002,106.0,107.0,103.0,13.4,1505.3,324.4,-0.7,1.8,2470.385,13.33,0.04,105.7
2020-02-11T09:46:03,42.805,6.029,0.001,0.011,-0.008,106.0,107.0,103.0,13.3,1505.3,324.8,-0.7,1.8,2470.394,13.33,0.011,5.2
2020-02-11T09:49:03,42.805,6.029,0.032,-0.02,0.018,109.0,108.0,103.0,13.4,1505.3,324.7,-0.7,1.8,2470.407,13.33,0.037,122.0
2020-02-11T09:52:03,42.805,6.029,0.012,-0.006,-0.009,106.0,108.0,102.0,13.4,1505.3,323.7,-0.7,1.8,2470.356,13.33,0.013,116.6
2020-02-11T09:55:03,42.805,6.029,0.003,-0.032,-0.024,106.0,107.0,102.0,13.3,1505.3,327.2,-0.7,1.8,2470.337,13.33,0.032,174.6